sat.trackr.live / text

‹ back to catalog

STARLINK-34140

NORAD 64085 · 2025-107X

PAYLOAD ACTIVE UNKNOWN

§ Identity

Operator
Country
US
Launch date
2025-05-21
Launch site
AFETR
Launch vehicle
Mass (kg)
RCS (m²)

Purposes: comms

External: N2YO · Heavens-Above · Gunter

§ Orbital elements

Epoch: 2026-09-20T04:09:26.435232Z

Period
94.27 min
Inclination
43.0019°
Eccentricity
0.0001236
Mean motion
15.27591029 rev/d
Perigee alt
482.2 km
Apogee alt
483.9 km
Semi-major
6,861.2 km
B*
3.8887e-4
RAAN
183.2524°
Arg perigee
265.9474°
Mean anomaly
94.1236°
Rev number
7,584

§ Raw data

STARLINK-341401 64085U 25107X   26263.17322263  .00010457  00000+0  38887-3 0  99962 64085  43.0019 183.2524 0001236 265.9474  94.1236 15.27591029 75846

JSON: /api/v1/satellites/64085 · /tle

For live sub-satellite position, see the globe view (requires WebGL).

§ Visibility from observer

Set your observer location to see the next 7 days of passes ≥ 10°. The values pass through the URL so the page stays shareable.

No JS? Fill the form by hand. The geolocation button needs JavaScript.